Regional Weather Roundup
Issued by NWS

Home | Current Version | Previous Version | Text Only | Print | Product List | Glossary On
Versions: 1 2 3 4 5 6 7 8 9 10 11 12 13 14 15 16 17 18 19 20 21 22 23 24 25 26 27 28 29 30 31 32 33 34 35 36 37 38 39 40 41 42 43 44 45 46 47 48 49 50
992
ASUS43 KTOP 231059
RWRKS

WEATHER ROUNDUP FOR KANSAS
NATIONAL WEATHER SERVICE GOODLAND KS
600 AM CDT FRI JUN 23 2017

NOTE:  "FAIR" INDICATES FEW OR NO CLOUDS BELOW 12,000 FEET WITH NO
SIGNIFICANT WEATHER AND/OR OBSTRUCTIONS TO VISIBILITY.

KSZ001>006-013>018-027>032-041>047-231200-
NORTHWEST KANSAS

CITY           SKY/WX    TMP DP  RH WIND       PRES   REMARKS
GOODLAND       CLOUDY    60  48  64 NE15      30.05R
HAYS           PTCLDY    66  59  78 N14       29.90R
HILL CITY      CLOUDY    66  54  65 N25G38    30.00R
RUSSELL        CLEAR     67  60  78 NE15      29.86R
$$

KSZ061>065-074>080-084>089-231200-
SOUTHWEST KANSAS

CITY           SKY/WX    TMP DP  RH WIND       PRES   REMARKS
DODGE CITY     CLOUDY    65  62  90 N14       29.90R
ELKHART          N/A     63  52  67 NW7         N/A
GARDEN CITY    CLEAR     64  60  87 N14       29.95R
GREAT BEND     PTCLDY    67  62  84 N14       29.88R
LIBERAL        CLEAR     67  62  84 NE14      29.89R
$$

KSZ066>073-081>083-090>101-231200-
SOUTHEAST KANSAS

CITY           SKY/WX    TMP DP  RH WIND       PRES   REMARKS
CHANUTE        CLEAR     74  71  91 SW6       29.69S
COFFEYVILLE    CLEAR     72  72 100 CALM      29.70R
HUTCHINSON     CLOUDY    73  65  75 N9G17     29.82R
MEDICINE LODGE   N/A     71  63  75 N14       29.80R
NEWTON         PTCLDY    71  66  84 N13       29.80R
PARSONS        CLEAR     70  69  97 CALM      29.71R
WICHITA INTL   PTCLDY    73  66  78 NW13      29.78R
WICHITA JABRA  CLEAR     72  66  81 NW9       29.77R
WINFIELD       PTCLDY    73  69  87 NW6       29.76R
$$

KSZ007>012-019>026-033>040-048>060-102>105-231200-
NORTHEAST KANSAS

CITY           SKY/WX    TMP DP  RH WIND       PRES   REMARKS
CONCORDIA      CLEAR     68  57  68 N15G23    29.87R
EMPORIA        MOCLDY    72  71  97 N5        29.72R
LAWRENCE       CLOUDY    74  67  78 N15G31    29.74R
MANHATTAN      PTCLDY    73  62  68 NE24G35   29.76R
OLATHE IND     CLOUDY    74  70  87 N15       29.75R
OLATHE EXE     CLOUDY    75  72  90 N12       29.74R
SALINA         PTCLDY    74  62  66 N16G25    29.83R
TOPEKA BILLARD CLOUDY    74  67  78 N15G26    29.76R
TOPEKA FORBES  CLOUDY    74  67  78 NE13G22   29.76R
$$




USA.gov is the U.S. government's official web portal to all federal, state and local government web resources and services.